Lapse_Rate
7.2 6.5 6.5 6.5 6.5 6.5 6.5 6.5 6.5 6.5 6.5 6.5 6.5 6.5 6.5 6.9 7.1 7.0 7.2 7.4 7.6 7.8 8.4 8.7 9.0 9.1 9.1 8.8 8.6 8.3 7.8 7.3 8.1 7.7 6.5 7.3 5.4 7.2 5.7 7.2 7.4 8.4 7.8 7.7
6.5 6.5 6.5 6.5 6.5 6.5 6.5 6.5 6.5 6.5 6.5 6.5 6.5 6.5 6.5 6.5 6.7 7.2 7.3 7.3 7.6 7.9 8.1 8.4 8.6 8.7 9.0 8.6 8.6 7.9 7.7 7.4 8.1 7.3 6.1 7.4 7.4 7.7 6.6 7.7 8.2 8.2 8.0 7.8
6.5 6.5 6.5 6.5 6.5 6.5 6.5 6.5 6.5 6.5 6.5 6.5 6.5 6.5 6.5 6.5 6.9 7.2 7.6 7.6 7.8 7.9 7.9 8.2 8.2 8.4 8.9 8.4 8.5 8.1 7.7 7.4 7.6 7.5 7.6 6.5 7.1 6.1 6.1 5.5 7.8 7.7 8.2 8.0
6.5 6.6 6.5 6.5 6.5 6.5 6.5 6.5 6.5 6.5 6.5 6.5 6.5 6.5 6.5 6.5 6.5 6.5 7.1 7.5 7.6 7.9 8.2 8.1 8.3 8.3 8.7 8.7 9.0 8.1 8.2 7.3 7.4 7.9 7.7 7.1 7.6 6.9 5.3 6.3 7.5 7.7 8.8 8.4
6.5 6.5 6.5 6.5 6.5 6.5 6.5 6.5 6.5 6.5 6.5 6.5 6.5 6.5 6.5 6.5 6.5 6.5 6.8 7.3 7.7 8.0 8.2 8.3 8.4 8.5 8.9 8.9 9.1 8.2 8.0 7.5 7.6 7.8 7.6 7.5 6.0 5.9 7.6 5.7 6.2 6.8 7.4 8.5
6.5 7.2 6.5 6.5 6.5 6.5 6.5 6.5 6.5 6.5 6.5 6.5 6.5 6.5 6.5 6.5 6.5 6.5 6.8 7.5 7.6 7.9 8.1 8.3 8.5 8.5 8.7 8.9 9.0 8.2 7.7 7.4 7.5 7.7 7.4 6.8 5.9 6.9 7.1 5.8 7.3 7.3 7.4 8.0
6.5 6.5 6.5 6.7 6.5 6.5 6.5 6.5 6.5 6.5 6.5 6.5 6.5 6.5 6.5 6.5 6.5 6.5 6.5 7.3 7.7 7.1 7.6 8.2 8.0 8.2 8.1 8.4 8.7 8.6 7.0 7.3 7.5 7.2 8.0 7.1 6.6 6.8 6.4 6.3 7.5 6.9 7.5 7.5
6.5 6.5 6.5 6.5 6.5 6.5 6.5 6.5 6.5 6.5 6.5 6.5 6.5 6.5 6.5 6.5 6.8 7.0 7.1 7.5 7.9 7.9 7.8 7.9 8.6 8.2 8.2 8.5 8.4 8.4 6.7 6.7 7.3 7.5 7.1 6.8 7.5 7.2 7.1 6.9 7.2 7.3 6.8 7.0
6.5 6.5 6.5 6.5 6.5 6.5 6.5 6.5 6.5 6.5 6.5 6.5 6.5 6.5 6.5 6.5 6.5 6.6 6.9 7.2 7.6 8.0 8.1 8.3 8.5 8.6 8.5 8.5 8.4 8.4 6.7 6.7 7.0 7.5 7.0 6.5 6.6 6.5 7.4 7.0 6.8 6.8 7.0 6.0
6.5 6.5 6.5 6.5 6.6 6.5 6.5 6.5 6.5 6.5 6.5 6.5 6.5 6.5 6.5 6.5 6.5 6.5 6.5 6.5 7.2 7.7 8.1 7.3 8.5 8.3 8.6 8.9 8.7 8.6 7.7 6.4 6.9 7.0 7.5 6.9 6.4 6.1 6.4 6.9 6.5 6.5 7.3 7.5
6.5 6.5 6.5 6.5 6.5 6.5 6.5 6.5 6.5 6.5 6.5 6.5 6.5 6.5 6.5 6.5 6.5 6.5 6.5 7.1 7.3 7.6 8.0 8.3 8.7 8.6 8.6 9.0 9.1 8.9 8.6 7.3 7.1 7.0 7.9 7.5 6.6 6.3 6.5 6.8 7.4 6.9 7.3 7.3
6.5 6.5 6.5 6.5 6.5 6.5 6.5 6.5 6.5 6.5 6.5 6.5 6.5 6.5 6.5 6.5 6.5 6.3 6.7 7.0 7.2 7.8 8.2 8.2 8.4 8.2 8.5 8.5 8.7 8.7 8.6 7.9 6.8 7.1 7.9 7.8 7.2 6.6 6.4 6.6 7.0 7.9 6.8 8.0
6.5 6.5 6.5 6.5 6.5 6.5 6.5 6.5 6.5 6.5 6.5 6.5 6.5 6.5 6.5 6.5 6.5 6.6 6.6 7.1 7.3 7.5 7.7 8.0 7.5 7.8 7.8 8.1 7.9 8.3 7.8 8.1 7.2 6.6 7.8 8.0 7.8 7.0 7.1 6.8 7.0 7.5 7.0 6.9
6.8 6.5 6.5 6.5 6.5 6.5 6.5 6.5 6.5 6.5 6.5 6.5 6.5 6.5 6.5 6.5 6.5 6.6 6.9 7.2 7.4 7.1 6.9 6.5 7.2 6.5 7.1 7.3 6.8 6.9 7.3 8.1 7.3 7.1 7.2 8.1 7.6 7.4 7.3 7.2 7.0 7.1 7.6 7.5
6.5 6.5 6.5 6.5 6.5 6.5 6.5 6.5 6.5 6.5 6.5 6.5 6.5 6.5 6.5 6.5 6.5 6.6 7.1 7.2 7.3 7.4 7.5 4.6 3.9 6.2 6.6 6.6 6.4 6.7 7.1 7.7 7.5 6.5 6.8 7.2 7.5 7.0 6.8 6.5 6.9 7.3 7.5 8.2
6.5 6.5 6.5 6.5 6.5 6.5 6.5 6.5 6.5 6.5 6.5 6.5 6.5 6.5 6.5 6.6 7.2 6.5 7.1 7.3 7.3 7.5 7.7 7.6 6.1 4.2 4.8 6.9 7.4 7.2 7.0 6.8 6.5 5.9 6.3 6.4 6.9 6.7 6.3 6.7 6.1 6.5 7.2 6.8
6.5 6.5 6.5 6.5 6.5 6.5 6.5 6.5 6.5 6.5 6.5 6.5 6.5 6.5 6.5 6.5 6.5 6.9 7.2 7.4 7.4 7.6 7.7 7.0 6.6 4.9 4.8 5.3 4.0 4.3 7.6 7.9 7.2 6.6 6.5 6.3 6.2 6.6 7.0 7.1 7.1 6.6 6.5 6.4
6.5 6.5 6.5 6.5 6.5 6.5 6.5 6.5 6.5 6.5 6.5 6.5 6.5 6.5 6.6 6.6 7.3 7.5 7.7 7.6 7.6 7.7 7.8 6.4 4.1 3.8 3.5 3.0 3.2 3.8 3.0 7.3 8.0 8.0 7.0 7.1 7.2 7.6 7.5 7.4 7.1 6.6 6.7 6.9
6.5 6.5 6.5 6.5 6.5 6.5 6.5 6.5 6.5 6.5 6.5 6.5 6.5 6.5 7.0 7.3 7.5 7.1 7.7 7.8 7.3 6.6 5.8 5.2 4.4 3.9 3.9 3.0 1.9 3.0 4.4 3.6 5.9 6.6 7.2 7.6 7.9 7.9 7.6 7.1 6.9 6.9 6.8 6.2
6.5 6.5 6.5 6.5 6.5 6.5 6.5 6.5 7.3 6.6 6.5 6.6 6.7 6.5 6.7 7.0 6.5 6.5 7.5 7.6 7.1 7.1 6.8 5.6 3.9 4.1 5.7 4.6 1.4 3.7 4.5 4.6 3.3 2.6 4.8 7.5 7.7 7.4 6.9 5.5 5.6 5.5 4.5 5.1
6.5 6.5 6.5 6.5 6.5 6.5 6.5 6.7 7.1 6.5 6.5 7.0 7.0 7.0 7.0 6.5 7.0 7.6 8.0 7.8 7.7 7.7 7.6 7.3 7.2 6.0 5.8 4.7 3.0 1.1 5.2 3.9 4.3 4.3 4.3 4.5 3.8 3.4 3.3 4.0 3.3 2.5 2.3 3.7
6.5 6.5 6.5 6.5 6.5 6.5 7.1 6.8 6.5 6.4 5.4 6.8 6.4 7.2 7.3 7.5 7.7 7.6 7.8 7.6 7.6 7.5 7.7 7.6 7.2 6.6 6.3 5.7 5.5 0.9 4.0 5.6 4.9 4.7 5.0 5.6 6.0 4.8 1.6 2.0 4.2 3.4 3.6 2.1
6.5 6.5 6.5 6.5 6.5 6.8 7.3 6.9 7.1 6.5 6.9 7.3 6.9 7.3 7.8 7.7 7.7 7.9 7.8 7.9 7.9 8.2 8.1 7.9 7.3 6.9 6.5 5.8 5.8 5.8 5.8 5.1 5.3 6.5 6.4 6.2 5.6 5.4 4.6 5.0 5.6 4.9 3.5 3.5
6.5 6.8 6.5 6.5 6.5 6.7 7.2 7.5 7.6 7.1 6.4 7.1 7.8 7.8 7.8 7.5 7.8 7.9 7.7 7.7 8.0 7.2 7.3 7.5 7.6 7.4 7.6 7.8 7.4 7.4 6.9 6.6 6.4 7.0 6.5 6.8 6.8 6.8 6.8 7.0 7.3 6.1 4.7 4.3
6.6 6.6 6.5 6.5 6.7 7.1 7.4 7.0 7.3 7.1 7.6 7.4 8.0 8.0 8.0 7.8 7.7 8.1 8.0 7.9 7.6 7.5 7.7 7.6 7.1 7.3 8.1 8.5 8.2 8.1 6.8 6.4 6.4 7.3 8.1 7.2 8.7 7.8 8.2 7.3 6.8 6.3 5.2 4.6
6.9 6.5 6.5 6.5 6.9 6.9 7.1 5.7 7.4 7.4 7.6 7.9 7.8 7.9 8.3 8.0 8.1 8.0 7.6 7.5 7.8 8.0 8.0 7.6 7.6 8.0 8.6 8.9 9.0 8.5 6.8 6.2 6.5 7.8 8.2 6.9 6.6 8.3 8.5 7.6 6.8 -0.4 -0.5 -3.3
Wind_Speed
17 15 18 20 19 20 5 14 18 16 11 14 11 18 19 20 20 20 20 19 18 18 17 18 17 15 15 15 13 9 9 11 7 6 3 3 4 2 6 10 15 12 12 8
18 21 22 22 22 22 15 15 21 6 12 12 6 4 21 23 19 23 21 20 20 19 19 17 16 16 16 16 14 12 11 11 8 6 3 3 2 4 6 10 10 12 13 9
22 22 23 24 22 23 23 18 20 16 8 8 11 15 25 21 20 21 20 18 20 21 21 18 17 17 16 17 15 13 13 11 9 8 5 4 1 4 3 3 5 6 12 10
25 23 26 23 22 23 22 16 18 7 8 10 17 11 15 19 18 24 22 21 19 21 20 20 18 17 17 17 16 15 11 13 10 7 6 7 5 7 6 7 7 6 11 8
24 27 25 27 23 24 22 23 19 12 13 11 13 10 15 21 20 24 24 25 24 19 21 22 22 18 18 19 16 15 12 13 10 7 5 5 5 5 5 5 11 8 7 11
25 26 27 27 26 22 23 23 15 12 18 11 21 14 17 18 21 23 27 27 26 24 21 22 21 19 16 18 17 17 15 13 11 9 7 7 9 4 6 8 8 8 7 4
23 29 28 27 27 25 23 21 14 13 12 14 19 18 7 4 10 18 19 26 25 18 20 21 23 20 18 19 20 18 18 14 13 11 9 9 7 6 5 11 7 7 9 8
19 22 28 28 28 25 25 23 16 17 15 16 20 17 12 19 19 17 23 24 26 24 21 21 24 21 20 19 18 19 18 16 15 14 11 9 7 5 4 6 5 6 4 10
21 30 23 28 30 25 26 22 23 26 22 15 14 20 16 13 14 13 20 21 25 29 25 25 24 23 21 18 19 19 20 18 17 15 12 10 8 8 5 6 3 4 1 7
14 24 31 25 28 30 27 18 20 16 21 15 21 10 12 14 12 14 13 20 21 19 23 21 22 23 22 20 17 18 19 18 18 17 13 12 11 9 7 4 5 6 4 6
21 19 24 24 24 27 17 20 23 18 19 16 15 14 19 14 14 13 14 19 22 21 19 21 22 23 23 22 19 19 18 19 17 16 14 13 13 12 9 7 5 8 5 4
20 16 16 22 22 22 28 24 26 16 19 16 15 15 10 15 14 9 13 13 17 20 21 17 18 23 23 22 21 20 19 19 18 15 13 14 13 13 13 11 9 6 6 4
12 9 13 18 21 25 29 25 24 25 22 19 16 16 23 5 1 7 6 11 4 1 15 19 16 17 22 21 20 21 18 18 19 16 15 15 15 14 15 13 12 8 8 8
5 15 19 17 18 16 22 25 26 23 17 16 17 23 11 18 12 2 10 6 4 14 6 5 17 12 19 18 18 16 17 17 17 17 17 15 16 15 14 12 13 11 10 11
13 15 19 25 30 27 25 19 21 22 21 19 20 21 14 14 12 11 13 16 18 18 19 19 17 12 11 14 13 13 14 15 16 16 16 15 14 13 12 12 10 12 11 11
18 13 16 24 25 24 25 26 22 24 24 23 24 22 11 15 24 17 17 14 14 15 16 17 19 20 16 6 8 10 10 12 13 15 15 13 12 12 12 11 12 10 11 10
17 13 14 18 22 20 22 23 20 18 24 25 22 13 17 17 16 15 12 10 12 13 14 15 15 13 14 14 13 12 5 8 8 11 13 13 13 13 12 11 10 10 10 8
20 18 13 15 18 19 16 19 18 20 15 21 22 17 17 15 16 12 10 8 9 11 11 12 9 11 10 11 14 13 11 4 5 6 11 13 14 13 10 9 10 8 6 8
20 17 14 14 12 16 24 7 11 14 21 2 17 21 19 18 19 12 9 9 8 9 8 8 9 8 7 6 6 9 10 10 5 5 7 8 9 10 10 9 8 6 5 5
20 17 11 15 17 19 11 19 21 22 7 16 14 13 15 14 2 5 8 8 8 8 7 8 9 8 6 7 10 8 7 7 6 8 8 4 7 9 9 5 6 3 5 7
8 15 15 16 16 13 10 11 8 5 7 25 7 9 10 10 10 13 11 10 9 7 9 8 8 5 4 4 4 11 6 5 5 5 3 4 2 1 5 7 4 5 5 3
5 6 10 14 20 21 13 10 3 4 10 9 11 12 17 16 15 13 11 9 8 7 8 8 7 7 6 6 7 11 7 7 5 4 1 1 1 2 2 3 3 2 6 6
6 6 6 11 3 7 9 9 3 4 18 7 14 12 14 13 13 13 12 9 6 8 7 5 5 5 5 7 7 7 3 3 6 2 3 2 1 2 1 5 5 5 5 4
4 7 4 9 6 5 6 5 8 11 8 14 14 13 11 13 12 13 9 8 9 9 7 6 6 6 5 5 4 3 3 5 6 5 6 3 4 3 4 4 4 4 3 2
5 14 4 10 6 5 5 6 6 6 13 11 6 8 11 11 10 10 10 8 7 7 7 6 6 6 6 6 7 8 7 8 7 3 3 2 3 5 3 4 5 4 2 0
5 3 4 2 6 5 4 1 8 5 8 10 9 8 10 9 9 8 6 2 3 4 5 5 6 6 6 5 5 4 5 8 9 7 7 4 4 2 5 5 4 11 9 4
Wind_Direction
227 234 236 240 234 253 153 306 255 193 208 250 219 154 176 184 194 175 198 183 188 179 172 169 173 168 161 152 163 171 157 144 151 185 176 164 221 50 92 114 152 167 160 201
237 227 238 243 252 249 216 247 267 207 188 231 203 101 190 180 186 175 192 186 192 183 174 170 171 165 168 159 169 160 145 152 186 192 179 186 167 181 130 140 157 146 170 177
234 236 226 245 246 254 256 221 264 192 145 234 234 205 214 180 178 175 191 198 195 188 178 170 172 170 171 162 169 166 156 166 203 189 190 123 170 110 97 147 169 174 152 182
249 241 253 220 245 247 253 231 240 158 209 252 217 244 214 170 173 174 189 194 206 193 179 168 178 174 173 163 171 165 168 170 211 220 159 185 178 164 173 200 152 147 146 191
246 244 243 251 227 245 251 262 244 273 216 246 218 232 203 181 178 177 186 189 199 198 188 172 182 180 177 168 171 164 174 173 208 204 175 188 191 216 171 128 143 156 177 200
252 257 247 247 252 229 254 258 255 263 275 262 257 220 286 181 192 186 187 185 189 196 188 176 176 176 189 170 173 165 173 179 206 210 200 200 217 241 163 153 158 165 165 204
255 250 254 255 245 243 227 245 246 217 249 246 248 245 178 158 158 183 184 176 182 186 193 180 172 175 188 183 175 169 171 181 193 199 193 225 227 226 253 152 166 184 179 184
251 243 241 244 246 240 231 229 242 235 222 229 228 244 240 181 176 188 178 174 179 191 184 196 174 173 183 191 182 171 172 179 187 191 194 211 220 239 244 174 175 207 200 183
256 266 242 229 245 229 240 228 233 253 256 266 251 213 219 202 167 176 176 168 180 185 193 187 177 175 180 192 187 176 173 181 185 195 189 198 217 236 239 197 218 279 185 136
290 256 267 254 223 242 232 242 222 240 254 248 273 234 243 154 180 195 172 164 176 185 186 187 179 175 176 183 188 181 173 183 187 191 190 192 202 214 241 284 214 232 258 144
308 297 257 262 245 221 212 234 251 252 236 253 244 260 194 161 216 190 185 173 173 178 192 186 178 176 176 178 186 184 187 181 188 193 195 193 192 204 214 222 228 233 236 181
315 316 290 257 264 251 229 219 236 246 236 247 261 262 178 168 168 86 211 165 175 179 184 190 185 173 175 178 185 186 192 181 186 189 196 193 193 199 208 208 226 205 210 210
346 296 286 272 272 269 218 217 228 237 247 227 246 247 101 2 37 125 129 124 114 197 187 178 183 174 174 180 185 188 188 183 181 182 193 193 197 197 206 205 221 210 199 221
289 270 264 272 268 282 199 216 232 239 240 239 246 254 140 148 160 269 86 69 105 39 6 154 168 173 171 178 179 185 182 182 174 181 187 198 199 199 203 205 201 218 211 212
270 277 277 280 280 289 295 222 229 249 257 248 247 242 243 132 69 114 112 58 57 50 42 34 6 151 155 164 162 170 177 183 175 181 186 198 196 198 204 200 213 200 222 212
298 292 304 295 276 276 276 278 223 224 246 255 261 265 3 104 103 88 53 58 53 50 46 37 33 30 27 92 155 162 172 179 168 175 190 190 197 197 200 203 197 219 205 216
288 291 286 277 281 276 263 264 270 231 219 241 248 260 76 64 68 85 79 53 50 47 50 42 34 23 19 23 25 9 169 162 185 173 188 188 194 208 209 198 201 205 213 210
255 258 271 270 283 277 274 255 255 270 257 218 240 101 104 107 100 80 74 67 54 50 46 53 43 23 18 16 18 360 360 244 207 210 188 195 201 200 197 201 212 209 194 216
234 244 250 253 264 279 279 6 13 15 282 300 93 111 121 122 109 75 71 75 72 60 54 57 42 34 12 23 28 14 355 11 5 195 212 207 198 199 194 200 207 209 221 225
218 227 244 251 251 238 303 358 356 329 235 23 111 131 145 169 166 115 115 106 88 82 72 58 40 32 357 339 86 23 357 37 41 29 23 256 219 221 210 154 144 185 171 263
273 214 216 233 250 255 353 9 10 335 8 318 2 105 91 88 88 129 119 106 100 87 85 77 80 63 30 306 28 70 13 336 6 22 47 47 11 81 109 133 110 121 77 64
266 343 220 238 246 247 10 101 83 342 317 312 9 83 92 101 106 103 96 96 101 102 81 71 65 57 37 11 351 67 27 333 294 315 132 196 290 242 207 173 198 187 178 178
203 218 319 323 234 75 47 60 25 237 254 25 49 52 77 91 99 98 92 87 85 85 86 97 87 68 43 30 34 48 349 335 290 248 226 166 242 252 181 186 169 201 220 215
160 15 238 258 78 69 52 65 353 3 29 51 42 53 60 65 64 78 76 67 62 52 62 77 83 84 67 80 95 62 357 288 249 223 244 137 137 217 204 184 160 125 119 171
246 163 229 286 130 120 70 25 357 26 81 104 100 98 88 82 76 80 81 68 68 51 43 76 64 58 72 73 50 30 6 345 332 351 118 123 167 207 113 83 89 112 80 182
256 213 202 283 116 106 117 307 354 84 86 121 129 112 94 96 94 100 73 63 60 89 92 30 64 64 42 24 30 39 360 347 353 12 13 20 330 198 123 135 115 39 49 22